QPF
0.00 0.00 0.01 0.01 0.01 0.03 0.02 0.01 0.01 0.01 0.01 0.01 0.01 0.02 0.03 0.03 0.02 0.02 0.03 0.04 0.04 0.02 0.01 0.01 0.01 0.01 0.01 0.01 0.01 0.02 0.02 0.03 0.03 0.02 0.02 0.03 0.03 0.04 0.04 0.04 0.05 0.08 0.11
0.00 0.00 0.01 0.02 0.02 0.03 0.03 0.01 0.01 0.00 0.00 0.01 0.01 0.01 0.02 0.02 0.01 0.01 0.02 0.02 0.01 0.01 0.01 0.01 0.01 0.01 0.01 0.01 0.01 0.01 0.01 0.02 0.02 0.02 0.03 0.04 0.04 0.04 0.04 0.05 0.05 0.06 0.07
0.00 0.00 0.01 0.02 0.02 0.05 0.03 0.01 0.00 0.00 0.00 0.01 0.01 0.01 0.01 0.01 0.01 0.01 0.01 0.01 0.01 0.01 0.01 0.01 0.01 0.01 0.01 0.01 0.01 0.01 0.02 0.02 0.02 0.03 0.04 0.05 0.06 0.06 0.05 0.05 0.06 0.06 0.07
0.00 0.01 0.01 0.02 0.02 0.03 0.01 0.00 0.00 0.00 0.00 0.00 0.01 0.00 0.01 0.01 0.00 0.00 0.01 0.01 0.01 0.01 0.01 0.01 0.01 0.01 0.01 0.01 0.02 0.02 0.02 0.02 0.03 0.04 0.04 0.05 0.07 0.08 0.07 0.06 0.06 0.06 0.08
0.01 0.01 0.01 0.01 0.01 0.01 0.01 0.01 0.01 0.01 0.00 0.00 0.00 0.00 0.00 0.00 0.01 0.01 0.01 0.01 0.01 0.01 0.01 0.00 0.01 0.01 0.02 0.02 0.02 0.02 0.02 0.03 0.04 0.04 0.04 0.05 0.06 0.07 0.08 0.07 0.05 0.05 0.07
0.01 0.00 0.00 0.00 0.01 0.01 0.01 0.01 0.01 0.01 0.01 0.01 0.01 0.01 0.01 0.01 0.01 0.01 0.01 0.02 0.01 0.01 0.01 0.01 0.01 0.01 0.01 0.02 0.02 0.02 0.03 0.04 0.04 0.05 0.05 0.05 0.05 0.06 0.07 0.07 0.06 0.06 0.07
0.02 0.01 0.01 0.02 0.02 0.01 0.01 0.02 0.02 0.02 0.02 0.01 0.02 0.01 0.01 0.01 0.01 0.01 0.02 0.02 0.02 0.02 0.01 0.02 0.02 0.01 0.01 0.02 0.02 0.02 0.02 0.03 0.04 0.04 0.04 0.03 0.03 0.04 0.06 0.07 0.07 0.07 0.08
0.02 0.02 0.02 0.03 0.03 0.02 0.02 0.02 0.03 0.03 0.03 0.03 0.03 0.03 0.02 0.02 0.02 0.02 0.02 0.02 0.02 0.02 0.01 0.01 0.01 0.01 0.02 0.02 0.02 0.02 0.02 0.02 0.02 0.03 0.03 0.04 0.03 0.04 0.06 0.08 0.09 0.10 0.11
0.02 0.02 0.02 0.02 0.02 0.02 0.02 0.02 0.03 0.03 0.04 0.04 0.04 0.04 0.04 0.04 0.04 0.03 0.03 0.02 0.02 0.02 0.02 0.01 0.01 0.01 0.01 0.02 0.02 0.03 0.03 0.02 0.03 0.03 0.03 0.05 0.05 0.06 0.07 0.09 0.11 0.13 0.14
0.01 0.01 0.02 0.02 0.02 0.02 0.02 0.02 0.02 0.03 0.03 0.04 0.04 0.04 0.03 0.03 0.03 0.03 0.03 0.02 0.02 0.02 0.01 0.01 0.02 0.02 0.02 0.02 0.02 0.03 0.03 0.03 0.02 0.02 0.03 0.04 0.05 0.06 0.07 0.08 0.11 0.13 0.12
0.00 0.00 0.00 0.01 0.01 0.02 0.02 0.02 0.02 0.02 0.03 0.04 0.04 0.04 0.03 0.02 0.02 0.02 0.03 0.02 0.02 0.02 0.02 0.01 0.01 0.02 0.02 0.01 0.02 0.02 0.02 0.02 0.02 0.03 0.04 0.04 0.05 0.05 0.05 0.07 0.09 0.11 0.10
0.00 0.00 0.00 0.00 0.00 0.01 0.01 0.01 0.02 0.02 0.02 0.03 0.03 0.03 0.02 0.02 0.02 0.02 0.03 0.03 0.03 0.02 0.02 0.01 0.01 0.02 0.01 0.01 0.02 0.02 0.02 0.02 0.03 0.04 0.05 0.05 0.05 0.05 0.05 0.06 0.08 0.09 0.08
0.00 0.00 0.00 0.01 0.01 0.01 0.01 0.01 0.01 0.02 0.01 0.02 0.02 0.02 0.01 0.01 0.02 0.03 0.03 0.03 0.03 0.02 0.02 0.02 0.02 0.02 0.02 0.02 0.02 0.02 0.03 0.03 0.04 0.05 0.05 0.04 0.04 0.05 0.05 0.06 0.07 0.08 0.07
0.00 0.00 0.01 0.01 0.01 0.01 0.01 0.01 0.01 0.01 0.01 0.01 0.01 0.01 0.01 0.02 0.02 0.02 0.02 0.03 0.03 0.03 0.02 0.02 0.02 0.02 0.01 0.01 0.01 0.01 0.02 0.04 0.05 0.05 0.05 0.04 0.04 0.05 0.05 0.05 0.05 0.06 0.08
0.00 0.00 0.00 0.01 0.01 0.01 0.01 0.01 0.01 0.01 0.01 0.02 0.02 0.02 0.02 0.02 0.02 0.02 0.02 0.02 0.02 0.03 0.03 0.03 0.02 0.02 0.01 0.01 0.01 0.01 0.03 0.04 0.05 0.05 0.05 0.05 0.04 0.04 0.05 0.05 0.05 0.06 0.07
0.00 0.00 0.01 0.01 0.01 0.01 0.01 0.01 0.01 0.01 0.02 0.02 0.02 0.02 0.02 0.02 0.02 0.02 0.02 0.02 0.02 0.03 0.02 0.02 0.02 0.01 0.01 0.01 0.01 0.02 0.03 0.04 0.04 0.05 0.08 0.08 0.05 0.04 0.04 0.04 0.04 0.05 0.06
0.01 0.01 0.01 0.01 0.01 0.01 0.01 0.01 0.01 0.01 0.01 0.02 0.02 0.02 0.02 0.02 0.02 0.02 0.02 0.02 0.02 0.02 0.02 0.01 0.01 0.01 0.01 0.02 0.02 0.02 0.03 0.04 0.04 0.04 0.07 0.08 0.06 0.05 0.05 0.05 0.04 0.05 0.06
0.01 0.01 0.01 0.01 0.01 0.01 0.01 0.01 0.01 0.01 0.01 0.01 0.01 0.01 0.01 0.01 0.02 0.02 0.02 0.02 0.02 0.01 0.01 0.01 0.01 0.02 0.02 0.03 0.03 0.03 0.03 0.04 0.04 0.05 0.04 0.05 0.06 0.06 0.06 0.05 0.04 0.04 0.05
0.01 0.01 0.02 0.02 0.02 0.02 0.01 0.01 0.01 0.02 0.02 0.02 0.01 0.01 0.01 0.01 0.01 0.01 0.02 0.02 0.01 0.01 0.01 0.02 0.02 0.02 0.02 0.03 0.03 0.03 0.03 0.04 0.05 0.05 0.04 0.04 0.05 0.05 0.05 0.04 0.04 0.04 0.04
0.02 0.02 0.02 0.02 0.02 0.02 0.01 0.02 0.02 0.02 0.02 0.02 0.01 0.01 0.01 0.01 0.02 0.02 0.02 0.02 0.01 0.01 0.02 0.02 0.02 0.02 0.03 0.03 0.03 0.03 0.03 0.04 0.05 0.04 0.04 0.03 0.03 0.04 0.04 0.04 0.04 0.05 0.04
0.02 0.02 0.02 0.02 0.02 0.01 0.01 0.01 0.02 0.02 0.02 0.01 0.01 0.01 0.02 0.02 0.02 0.02 0.02 0.02 0.02 0.02 0.02 0.02 0.02 0.02 0.02 0.02 0.03 0.03 0.03 0.03 0.04 0.05 0.04 0.03 0.04 0.04 0.04 0.04 0.04 0.04 0.04
0.02 0.02 0.02 0.02 0.02 0.02 0.02 0.02 0.02 0.02 0.01 0.01 0.01 0.01 0.01 0.01 0.02 0.02 0.02 0.02 0.02 0.02 0.03 0.03 0.02 0.02 0.02 0.02 0.03 0.03 0.03 0.03 0.03 0.04 0.04 0.04 0.04 0.04 0.04 0.04 0.04 0.03 0.04
0.02 0.02 0.02 0.02 0.02 0.03 0.03 0.02 0.02 0.02 0.01 0.01 0.01 0.01 0.01 0.01 0.01 0.02 0.02 0.02 0.03 0.03 0.03 0.02 0.02 0.02 0.02 0.03 0.03 0.03 0.03 0.03 0.03 0.03 0.03 0.03 0.03 0.03 0.03 0.04 0.04 0.04 0.04
0.01 0.01 0.02 0.02 0.02 0.02 0.02 0.02 0.02 0.02 0.01 0.01 0.01 0.01 0.01 0.01 0.02 0.02 0.02 0.03 0.03 0.02 0.02 0.02 0.02 0.02 0.02 0.02 0.03 0.03 0.03 0.03 0.03 0.03 0.03 0.03 0.03 0.03 0.03 0.03 0.03 0.04 0.05
0.01 0.01 0.01 0.01 0.01 0.02 0.02 0.01 0.01 0.01 0.01 0.01 0.01 0.01 0.01 0.01 0.02 0.02 0.02 0.03 0.03 0.02 0.01 0.02 0.02 0.02 0.02 0.02 0.03 0.03 0.03 0.03 0.03 0.03 0.03 0.03 0.03 0.03 0.03 0.03 0.04 0.04 0.05
0.01 0.01 0.01 0.01 0.01 0.01 0.01 0.01 0.01 0.01 0.01 0.01 0.01 0.01 0.01 0.01 0.02 0.01 0.02 0.03 0.03 0.02 0.02 0.02 0.02 0.02 0.02 0.02 0.03 0.03 0.03 0.03 0.03 0.03 0.03 0.03 0.03 0.03 0.03 0.04 0.04 0.04 0.05
MSLP
1018.99 1018.25 1017.47 1016.68 1015.89 1015.11 1014.35 1013.62 1012.90 1012.18 1011.47 1010.74 1009.99 1009.21 1008.42 1007.60 1006.78 1005.98 1005.20 1004.47 1003.81 1003.24 1002.77 1002.40 1002.13 1001.96 1001.86 1001.81 1001.77 1001.71 1001.60 1001.42 1001.14 1000.76 1000.30 999.77 999.21 998.66 998.14 997.68 997.29 996.99 996.76
1019.06 1018.28 1017.49 1016.71 1015.96 1015.23 1014.53 1013.84 1013.17 1012.48 1011.77 1011.03 1010.23 1009.40 1008.53 1007.64 1006.75 1005.87 1005.02 1004.24 1003.54 1002.93 1002.43 1002.04 1001.76 1001.57 1001.46 1001.41 1001.38 1001.34 1001.26 1001.11 1000.87 1000.54 1000.13 999.66 999.15 998.64 998.16 997.74 997.38 997.09 996.87
1019.08 1018.27 1017.47 1016.71 1016.00 1015.32 1014.69 1014.08 1013.46 1012.82 1012.14 1011.40 1010.59 1009.73 1008.81 1007.87 1006.92 1005.98 1005.10 1004.27 1003.54 1002.90 1002.37 1001.94 1001.62 1001.40 1001.25 1001.16 1001.10 1001.04 1000.94 1000.80 1000.58 1000.29 999.93 999.51 999.07 998.63 998.21 997.85 997.54 997.30 997.10
1019.09 1018.25 1017.45 1016.71 1016.04 1015.43 1014.86 1014.32 1013.77 1013.19 1012.54 1011.83 1011.03 1010.15 1009.22 1008.26 1007.28 1006.33 1005.42 1004.58 1003.82 1003.16 1002.60 1002.13 1001.77 1001.48 1001.27 1001.11 1000.98 1000.87 1000.73 1000.56 1000.33 1000.05 999.72 999.36 998.98 998.61 998.27 997.98 997.75 997.57 997.43
1019.11 1018.26 1017.47 1016.75 1016.12 1015.57 1015.06 1014.59 1014.10 1013.58 1012.98 1012.30 1011.52 1010.66 1009.74 1008.79 1007.82 1006.88 1005.98 1005.14 1004.39 1003.71 1003.13 1002.62 1002.20 1001.84 1001.55 1001.30 1001.09 1000.88 1000.67 1000.45 1000.19 999.90 999.58 999.25 998.92 998.61 998.35 998.14 998.00 997.90 997.83
1019.18 1018.35 1017.58 1016.89 1016.30 1015.80 1015.34 1014.92 1014.48 1014.00 1013.45 1012.80 1012.06 1011.24 1010.35 1009.43 1008.50 1007.59 1006.73 1005.92 1005.18 1004.51 1003.91 1003.37 1002.89 1002.47 1002.08 1001.74 1001.42 1001.12 1000.83 1000.53 1000.22 999.89 999.57 999.25 998.94 998.69 998.48 998.34 998.27 998.25 998.27
1019.35 1018.55 1017.82 1017.17 1016.61 1016.14 1015.73 1015.34 1014.93 1014.48 1013.96 1013.35 1012.65 1011.87 1011.03 1010.16 1009.29 1008.44 1007.63 1006.87 1006.16 1005.51 1004.90 1004.34 1003.81 1003.31 1002.85 1002.41 1001.99 1001.60 1001.21 1000.83 1000.46 1000.10 999.74 999.41 999.11 998.87 998.70 998.61 998.59 998.64 998.73
1019.61 1018.86 1018.18 1017.57 1017.05 1016.61 1016.22 1015.85 1015.46 1015.03 1014.52 1013.94 1013.27 1012.54 1011.76 1010.95 1010.15 1009.37 1008.62 1007.92 1007.26 1006.63 1006.02 1005.44 1004.88 1004.33 1003.79 1003.27 1002.77 1002.29 1001.83 1001.38 1000.95 1000.54 1000.14 999.79 999.47 999.23 999.06 998.98 998.98 999.07 999.20
1019.93 1019.25 1018.62 1018.07 1017.59 1017.17 1016.79 1016.43 1016.04 1015.62 1015.12 1014.56 1013.92 1013.24 1012.51 1011.77 1011.05 1010.34 1009.66 1009.01 1008.40 1007.80 1007.20 1006.61 1006.02 1005.43 1004.85 1004.27 1003.72 1003.18 1002.66 1002.16 1001.69 1001.23 1000.80 1000.41 1000.06 999.78 999.59 999.48 999.47 999.56 999.71
1020.27 1019.65 1019.09 1018.59 1018.15 1017.76 1017.40 1017.04 1016.65 1016.22 1015.74 1015.19 1014.59 1013.94 1013.27 1012.59 1011.93 1011.29 1010.68 1010.09 1009.52 1008.95 1008.37 1007.78 1007.18 1006.57 1005.96 1005.35 1004.76 1004.19 1003.65 1003.13 1002.63 1002.15 1001.69 1001.26 1000.88 1000.55 1000.31 1000.15 1000.09 1000.13 1000.27
1020.58 1020.03 1019.53 1019.09 1018.69 1018.32 1017.98 1017.62 1017.24 1016.82 1016.34 1015.81 1015.23 1014.62 1014.00 1013.38 1012.78 1012.20 1011.64 1011.11 1010.57 1010.03 1009.47 1008.89 1008.29 1007.68 1007.06 1006.45 1005.85 1005.28 1004.74 1004.22 1003.72 1003.24 1002.77 1002.32 1001.90 1001.52 1001.21 1000.98 1000.85 1000.82 1000.89
1020.83 1020.35 1019.91 1019.51 1019.15 1018.82 1018.50 1018.16 1017.79 1017.37 1016.91 1016.39 1015.84 1015.26 1014.68 1014.11 1013.55 1013.02 1012.51 1012.02 1011.52 1011.00 1010.47 1009.91 1009.32 1008.72 1008.11 1007.51 1006.94 1006.39 1005.87 1005.37 1004.89 1004.43 1003.96 1003.50 1003.06 1002.64 1002.26 1001.95 1001.73 1001.62 1001.61
1021.05 1020.61 1020.21 1019.86 1019.54 1019.24 1018.95 1018.63 1018.28 1017.88 1017.43 1016.93 1016.40 1015.85 1015.30 1014.76 1014.24 1013.75 1013.27 1012.81 1012.34 1011.85 1011.34 1010.81 1010.25 1009.67 1009.09 1008.52 1007.97 1007.46 1006.97 1006.52 1006.07 1005.63 1005.19 1004.74 1004.28 1003.83 1003.40 1003.03 1002.73 1002.52 1002.42
1021.25 1020.84 1020.48 1020.16 1019.88 1019.61 1019.35 1019.06 1018.73 1018.35 1017.92 1017.45 1016.93 1016.40 1015.87 1015.35 1014.86 1014.39 1013.93 1013.49 1013.05 1012.60 1012.12 1011.61 1011.08 1010.53 1009.98 1009.45 1008.94 1008.46 1008.02 1007.60 1007.19 1006.79 1006.37 1005.94 1005.48 1005.02 1004.57 1004.15 1003.78 1003.50 1003.32
1021.49 1021.09 1020.75 1020.46 1020.20 1019.97 1019.73 1019.48 1019.17 1018.82 1018.41 1017.95 1017.45 1016.93 1016.41 1015.90 1015.41 1014.95 1014.52 1014.10 1013.68 1013.26 1012.81 1012.34 1011.84 1011.33 1010.82 1010.32 1009.84 1009.39 1008.97 1008.58 1008.20 1007.82 1007.44 1007.03 1006.59 1006.14 1005.68 1005.24 1004.85 1004.51 1004.27
1021.81 1021.41 1021.07 1020.79 1020.56 1020.35 1020.14 1019.91 1019.64 1019.30 1018.91 1018.47 1017.98 1017.46 1016.94 1016.43 1015.95 1015.49 1015.07 1014.67 1014.28 1013.88 1013.47 1013.04 1012.58 1012.10 1011.62 1011.14 1010.68 1010.24 1009.83 1009.44 1009.08 1008.72 1008.35 1007.96 1007.56 1007.13 1006.69 1006.26 1005.86 1005.51 1005.24
1022.20 1021.80 1021.46 1021.19 1020.97 1020.78 1020.59 1020.38 1020.13 1019.82 1019.44 1019.01 1018.52 1018.01 1017.48 1016.97 1016.49 1016.04 1015.63 1015.25 1014.88 1014.52 1014.14 1013.75 1013.32 1012.88 1012.41 1011.94 1011.48 1011.04 1010.61 1010.22 1009.84 1009.48 1009.11 1008.75 1008.37 1007.97 1007.57 1007.17 1006.80 1006.46 1006.18
1022.65 1022.24 1021.90 1021.63 1021.41 1021.24 1021.07 1020.88 1020.64 1020.35 1019.99 1019.57 1019.09 1018.58 1018.05 1017.54 1017.06 1016.62 1016.22 1015.85 1015.51 1015.18 1014.84 1014.48 1014.09 1013.66 1013.21 1012.74 1012.27 1011.80 1011.35 1010.92 1010.51 1010.13 1009.76 1009.40 1009.04 1008.68 1008.32 1007.97 1007.63 1007.32 1007.06
1023.11 1022.69 1022.35 1022.08 1021.87 1021.69 1021.54 1021.36 1021.15 1020.87 1020.53 1020.12 1019.65 1019.15 1018.64 1018.13 1017.66 1017.22 1016.84 1016.50 1016.18 1015.88 1015.57 1015.24 1014.87 1014.46 1014.01 1013.53 1013.04 1012.54 1012.04 1011.57 1011.13 1010.71 1010.33 1009.96 1009.62 1009.29 1008.97 1008.66 1008.37 1008.10 1007.86
1023.52 1023.11 1022.77 1022.49 1022.28 1022.12 1021.97 1021.80 1021.60 1021.35 1021.02 1020.63 1020.19 1019.70 1019.20 1018.72 1018.26 1017.84 1017.47 1017.15 1016.86 1016.58 1016.29 1015.98 1015.63 1015.23 1014.78 1014.29 1013.77 1013.24 1012.71 1012.20 1011.71 1011.27 1010.86 1010.49 1010.15 1009.84 1009.55 1009.28 1009.02 1008.78 1008.56
1023.87 1023.47 1023.13 1022.86 1022.65 1022.48 1022.33 1022.17 1021.99 1021.74 1021.44 1021.08 1020.65 1020.20 1019.72 1019.26 1018.83 1018.43 1018.08 1017.77 1017.50 1017.24 1016.97 1016.67 1016.32 1015.93 1015.48 1014.98 1014.44 1013.89 1013.33 1012.79 1012.28 1011.81 1011.39 1011.01 1010.68 1010.38 1010.10 1009.85 1009.62 1009.40 1009.19
1024.16 1023.77 1023.44 1023.17 1022.96 1022.78 1022.63 1022.47 1022.29 1022.06 1021.77 1021.43 1021.04 1020.61 1020.17 1019.74 1019.33 1018.96 1018.62 1018.33 1018.06 1017.81 1017.54 1017.24 1016.90 1016.51 1016.06 1015.56 1015.02 1014.46 1013.90 1013.35 1012.83 1012.36 1011.93 1011.56 1011.22 1010.93 1010.66 1010.42 1010.19 1009.96 1009.74
1024.42 1024.06 1023.74 1023.47 1023.25 1023.06 1022.89 1022.72 1022.53 1022.30 1022.02 1021.70 1021.33 1020.93 1020.53 1020.12 1019.74 1019.39 1019.07 1018.78 1018.51 1018.25 1017.97 1017.67 1017.32 1016.93 1016.48 1015.99 1015.46 1014.92 1014.38 1013.85 1013.36 1012.90 1012.49 1012.12 1011.80 1011.50 1011.24 1010.98 1010.73 1010.49 1010.24
1024.72 1024.39 1024.08 1023.81 1023.58 1023.37 1023.17 1022.97 1022.75 1022.50 1022.22 1021.90 1021.55 1021.18 1020.80 1020.42 1020.06 1019.72 1019.41 1019.12 1018.84 1018.56 1018.27 1017.95 1017.59 1017.19 1016.75 1016.28 1015.78 1015.27 1014.77 1014.29 1013.83 1013.42 1013.04 1012.70 1012.39 1012.10 1011.82 1011.55 1011.27 1010.99 1010.71
1025.10 1024.81 1024.52 1024.24 1023.98 1023.74 1023.50 1023.25 1022.99 1022.71 1022.41 1022.08 1021.73 1021.36 1021.00 1020.64 1020.29 1019.96 1019.65 1019.35 1019.06 1018.76 1018.44 1018.10 1017.73 1017.33 1016.90 1016.45 1015.99 1015.53 1015.09 1014.66 1014.27 1013.91 1013.57 1013.27 1012.97 1012.69 1012.40 1012.11 1011.80 1011.49 1011.16
1025.59 1025.33 1025.06 1024.77 1024.49 1024.19 1023.90 1023.59 1023.28 1022.95 1022.60 1022.24 1021.88 1021.52 1021.16 1020.81 1020.47 1020.15 1019.84 1019.53 1019.22 1018.90 1018.56 1018.20 1017.82 1017.42 1017.00 1016.58 1016.16 1015.75 1015.37 1015.01 1014.67 1014.37 1014.08 1013.81 1013.54 1013.26 1012.97 1012.66 1012.33 1011.99 1011.63
Thickness
5562 5559 5556 5553 5550 5548 5544 5541 5539 5536 5534 5532 5530 5527 5525 5523 5520 5517 5514 5512 5508 5505 5502 5500 5497 5494 5491 5488 5484 5481 5477 5473 5474 5485 5486 5486 5486 5486 5488 5488 5489 5490 5492
5555 5552 5549 5545 5542 5539 5536 5534 5531 5528 5526 5523 5521 5519 5517 5515 5512 5509 5506 5504 5500 5497 5494 5491 5488 5485 5482 5478 5474 5471 5468 5464 5462 5467 5473 5474 5474 5475 5476 5477 5480 5482 5483
5547 5543 5540 5537 5534 5531 5528 5526 5523 5520 5517 5515 5513 5511 5509 5507 5504 5501 5498 5496 5493 5489 5485 5482 5479 5475 5472 5469 5465 5461 5459 5457 5454 5454 5459 5461 5463 5464 5466 5469 5471 5473 5475
5538 5534 5531 5528 5525 5522 5520 5517 5514 5512 5509 5506 5504 5502 5500 5498 5495 5492 5490 5488 5484 5481 5477 5474 5470 5466 5463 5460 5457 5454 5451 5449 5447 5446 5448 5451 5453 5456 5457 5460 5464 5466 5467
5527 5524 5521 5519 5516 5513 5510 5508 5505 5503 5501 5498 5495 5493 5491 5488 5487 5484 5481 5479 5476 5473 5470 5467 5463 5459 5456 5453 5450 5447 5444 5442 5440 5439 5440 5443 5446 5447 5449 5451 5455 5458 5460
5517 5513 5511 5509 5506 5504 5501 5499 5496 5493 5491 5488 5486 5483 5482 5480 5478 5476 5472 5469 5468 5465 5463 5461 5457 5454 5451 5448 5445 5442 5438 5435 5433 5433 5434 5435 5438 5440 5442 5444 5446 5449 5453
5506 5504 5501 5499 5496 5494 5492 5489 5486 5484 5481 5479 5477 5474 5473 5471 5469 5467 5464 5461 5459 5457 5454 5453 5451 5449 5445 5442 5440 5438 5434 5431 5429 5428 5428 5430 5431 5434 5435 5437 5439 5441 5444
5495 5493 5491 5488 5486 5484 5481 5478 5476 5475 5472 5470 5468 5466 5464 5463 5461 5458 5456 5453 5451 5449 5447 5445 5443 5442 5439 5436 5434 5432 5430 5427 5425 5424 5425 5426 5427 5428 5429 5431 5432 5434 5437
5484 5482 5480 5478 5475 5473 5470 5468 5467 5465 5463 5461 5460 5458 5456 5455 5453 5450 5448 5445 5444 5442 5441 5439 5437 5436 5434 5432 5429 5427 5425 5424 5422 5421 5422 5422 5423 5424 5424 5425 5427 5429 5432
5473 5471 5470 5468 5466 5463 5461 5459 5457 5456 5454 5453 5452 5450 5448 5447 5445 5442 5440 5438 5437 5436 5436 5434 5432 5430 5429 5426 5423 5421 5420 5419 5418 5418 5417 5418 5418 5418 5419 5420 5422 5423 5424
5462 5461 5459 5458 5455 5454 5452 5449 5447 5446 5444 5443 5442 5441 5440 5438 5437 5435 5433 5431 5429 5429 5430 5429 5427 5425 5423 5421 5419 5416 5414 5413 5412 5411 5411 5411 5411 5412 5413 5414 5416 5417 5418
5452 5451 5449 5447 5446 5445 5442 5440 5438 5436 5435 5433 5433 5432 5431 5430 5429 5428 5427 5425 5423 5422 5423 5422 5421 5420 5418 5416 5414 5412 5410 5408 5406 5405 5404 5404 5405 5406 5407 5409 5410 5411 5412
5443 5441 5439 5437 5436 5434 5432 5430 5428 5427 5425 5424 5423 5423 5423 5422 5420 5420 5419 5418 5417 5416 5415 5415 5414 5413 5411 5410 5408 5407 5404 5401 5400 5399 5398 5398 5398 5399 5401 5403 5404 5405 5407
5433 5431 5430 5428 5426 5425 5423 5421 5419 5417 5416 5415 5414 5414 5413 5413 5413 5412 5412 5411 5411 5410 5408 5408 5407 5406 5404 5402 5401 5399 5396 5394 5393 5392 5392 5392 5392 5394 5396 5397 5399 5400 5401
5422 5421 5420 5419 5417 5415 5413 5411 5409 5408 5407 5406 5406 5405 5405 5406 5406 5406 5404 5405 5404 5403 5402 5401 5400 5398 5397 5394 5393 5391 5390 5388 5387 5386 5387 5387 5389 5390 5391 5392 5393 5395 5396
5412 5411 5410 5409 5408 5406 5404 5403 5402 5401 5401 5400 5399 5399 5399 5399 5399 5400 5399 5399 5398 5397 5395 5393 5391 5389 5387 5386 5385 5385 5384 5383 5382 5383 5383 5384 5385 5386 5387 5387 5388 5389 5390
5401 5400 5399 5399 5398 5396 5395 5394 5393 5394 5393 5393 5393 5393 5392 5392 5393 5393 5393 5392 5391 5390 5387 5384 5382 5381 5379 5379 5378 5378 5378 5378 5378 5379 5379 5380 5380 5381 5382 5383 5384 5385 5385
5391 5391 5390 5389 5388 5387 5386 5385 5385 5385 5386 5386 5386 5386 5386 5386 5386 5386 5385 5385 5383 5381 5378 5376 5375 5374 5373 5373 5373 5373 5373 5374 5375 5375 5375 5376 5376 5376 5377 5378 5380 5381 5381
5382 5381 5381 5380 5379 5378 5378 5378 5377 5377 5377 5378 5379 5379 5380 5379 5379 5378 5378 5376 5375 5373 5371 5370 5368 5368 5368 5368 5368 5369 5369 5370 5371 5371 5371 5371 5371 5372 5373 5374 5375 5377 5377
5373 5373 5373 5372 5372 5371 5371 5371 5370 5370 5370 5370 5371 5371 5372 5373 5372 5371 5370 5368 5367 5366 5365 5364 5363 5363 5363 5364 5365 5366 5367 5367 5368 5368 5368 5368 5368 5369 5370 5371 5372 5372 5372
5364 5365 5365 5365 5364 5364 5364 5364 5364 5364 5365 5365 5365 5365 5366 5365 5364 5362 5362 5361 5360 5359 5358 5358 5358 5359 5360 5361 5362 5363 5363 5364 5364 5365 5365 5365 5365 5366 5367 5368 5368 5368 5368
5357 5357 5357 5357 5358 5358 5358 5359 5359 5359 5359 5359 5359 5359 5359 5358 5356 5356 5355 5354 5353 5352 5352 5353 5354 5355 5356 5357 5358 5359 5360 5360 5361 5362 5362 5363 5363 5364 5364 5365 5365 5365 5365
5350 5351 5351 5351 5351 5352 5352 5352 5352 5353 5353 5353 5353 5353 5352 5351 5350 5349 5349 5348 5348 5348 5348 5349 5350 5352 5353 5354 5355 5355 5357 5358 5358 5359 5360 5360 5361 5361 5361 5362 5362 5362 5362
5344 5344 5344 5344 5345 5345 5345 5345 5345 5346 5346 5345 5346 5345 5344 5343 5343 5343 5342 5343 5343 5343 5344 5345 5347 5348 5350 5351 5352 5353 5355 5356 5356 5357 5358 5358 5358 5358 5358 5358 5358 5358 5358
5337 5337 5338 5338 5338 5338 5338 5339 5339 5339 5339 5339 5339 5338 5338 5337 5336 5337 5337 5337 5338 5339 5340 5341 5343 5345 5346 5348 5350 5351 5353 5354 5355 5356 5356 5357 5356 5356 5356 5356 5356 5355 5355
5329 5330 5330 5331 5331 5331 5332 5332 5332 5332 5332 5332 5332 5332 5331 5331 5331 5331 5332 5332 5333 5334 5335 5337 5339 5341 5343 5345 5347 5349 5351 5353 5354 5355 5355 5355 5355 5355 5355 5355 5354 5354 5354